Santiago, Spain

3:54 PM CET on February 19, 2017 (GMT +0100)
Santiago

Weather History for LEST - November, 2012

Change the Weather History Date:

Tuesday, November 20, 2012

  Actual Average Record
Temperature  
Mean Temperature 52 °F -  
Max Temperature 55 °F 51 °F 64 °F (2014)
Min Temperature 48 °F 40 °F 32 °F (2013)
Degree Days  
Heating Degree Days 14    
Growing Degree Days 2 (Base 50)    
Moisture  
Dew Point 49 °F    
Average Humidity 83    
Maximum Humidity 100    
Minimum Humidity 77    
Precipitation  
Precipitation 0.00 in - - ()
Sea Level Pressure  
Sea Level Pressure 29.87 in    
Wind  
Wind Speed 13 mph ()    
Max Wind Speed 23 mph    
Max Gust Speed 36 mph    
Visibility 5.8 miles    
Events Rain    
Averages and records for this station are not official NWS values.
T = Trace of Precipitation, MM = Missing Value Source: Averaged Metar Reports

Daily Weather History Graph

Daily Weather History Graph

Search for Another Location

Airport or City:

Trip Planner

Search our weather history database for the weather conditions in past years. The results will help you decide how hot, cold, wet, or windy it might be!

Date:

Astronomy

Nov. 20, 2012 Rise Set
Actual Time 8:32 AM CET 6:06 PM CET
Civil Twilight 8:01 AM CET 6:36 PM CET
Nautical Twilight 7:26 AM CET 7:11 PM CET
Astronomical Twilight 6:53 AM CET 7:45 PM CET
Moon 1:55 PM CET (11/20) 12:22 AM CET (11/20)
Length of Visible Light 10h 35m
Length of Day
9h 33m
Waxing Crescent, 48% of the Moon is Illuminated
Nov 20
Waxing Crescent
Nov 20
First Quarter
Nov 28
Full
Dec 6
Last Quarter
Dec 13
New

Hourly Weather History & Observations

Time (CET) Temp. Dew Point Humidity Pressure Visibility Wind Dir Wind Speed Gust Speed Precip Events Conditions
12:00 AM 53.6 °F 50.0 °F 88% 29.95 in 6.2 mi South 11.5 mph - N/A   Mostly Cloudy
12:30 AM 53.6 °F 50.0 °F 88% 29.95 in 6.2 mi South 11.5 mph - N/A   Mostly Cloudy
1:00 AM 55.4 °F 50.0 °F 82% 29.95 in 6.2 mi South 15.0 mph - N/A   Mostly Cloudy
1:30 AM 55.4 °F 50.0 °F 82% 29.95 in 6.2 mi SSW 13.8 mph - N/A   Mostly Cloudy
2:00 AM 55.4 °F 50.0 °F 82% 29.95 in 6.2 mi South 13.8 mph 25.3 mph N/A   Mostly Cloudy
2:30 AM 55.4 °F 50.0 °F 82% 29.95 in 6.2 mi South 15.0 mph 26.5 mph N/A   Mostly Cloudy
3:00 AM 55.4 °F 50.0 °F 82% 29.92 in 6.2 mi South 12.7 mph - N/A   Mostly Cloudy
3:30 AM 55.4 °F 50.0 °F 82% 29.92 in 6.2 mi South 15.0 mph - N/A   Mostly Cloudy
4:30 AM 55.4 °F 50.0 °F 82% 29.92 in 6.2 mi South 10.4 mph - N/A   Mostly Cloudy
5:00 AM 55.4 °F 48.2 °F 77% 29.92 in 6.2 mi South 11.5 mph - N/A   Mostly Cloudy
5:30 AM 55.4 °F 48.2 °F 77% 29.89 in 6.2 mi South 13.8 mph - N/A   Mostly Cloudy
6:00 AM 53.6 °F 48.2 °F 82% 29.89 in 6.2 mi South 13.8 mph - N/A   Mostly Cloudy
6:30 AM 53.6 °F 48.2 °F 82% 29.89 in 6.2 mi South 11.5 mph - N/A   Mostly Cloudy
7:00 AM 53.6 °F 48.2 °F 82% 29.89 in 6.2 mi South 15.0 mph - N/A   Mostly Cloudy
7:30 AM 53.6 °F 48.2 °F 82% 29.89 in 6.2 mi South 16.1 mph 31.1 mph N/A   Mostly Cloudy
8:00 AM 53.6 °F 48.2 °F 82% 29.92 in 6.2 mi South 13.8 mph - N/A   Mostly Cloudy
8:30 AM 53.6 °F 48.2 °F 82% 29.92 in 6.2 mi South 16.1 mph - N/A   Mostly Cloudy
9:00 AM 53.6 °F 48.2 °F 82% 29.92 in 6.2 mi South 15.0 mph - N/A   Mostly Cloudy
9:30 AM 55.4 °F 48.2 °F 77% 29.89 in 6.2 mi South 16.1 mph - N/A   Mostly Cloudy
10:00 AM 55.4 °F 48.2 °F 77% 29.89 in 6.2 mi South 16.1 mph - N/A   Mostly Cloudy
10:30 AM 55.4 °F 48.2 °F 77% 29.89 in 6.2 mi South 17.3 mph 28.8 mph N/A   Mostly Cloudy
11:00 AM 55.4 °F 50.0 °F 82% 29.92 in 6.2 mi South 13.8 mph - N/A   Drizzle
11:30 AM 55.4 °F 50.0 °F 82% 29.92 in 6.2 mi South 17.3 mph - N/A   Mostly Cloudy
12:00 PM 53.6 °F 50.0 °F 88% 29.89 in 5.6 mi South 16.1 mph - N/A Rain Light Rain
12:30 PM 53.6 °F 50.0 °F 88% 29.89 in 5.6 mi South 16.1 mph 27.6 mph N/A   Light Drizzle
1:00 PM 55.4 °F 50.0 °F 82% 29.86 in 5.6 mi South 20.7 mph - N/A   Light Drizzle
1:30 PM 53.6 °F 50.0 °F 88% 29.86 in 5.6 mi South 19.6 mph - N/A   Mostly Cloudy
2:00 PM 55.4 °F 50.0 °F 82% 29.86 in 6.2 mi South 16.1 mph - N/A   Mostly Cloudy
2:30 PM 55.4 °F 48.2 °F 77% 29.83 in 6.2 mi South 17.3 mph - N/A   Mostly Cloudy
3:00 PM 55.4 °F 48.2 °F 77% 29.83 in 6.2 mi South 15.0 mph 26.5 mph N/A   Mostly Cloudy
3:30 PM 55.4 °F 48.2 °F 77% 29.83 in 6.2 mi South 13.8 mph - N/A   Mostly Cloudy
4:00 PM 55.4 °F 48.2 °F 77% 29.80 in 6.2 mi South 20.7 mph 32.2 mph N/A   Mostly Cloudy
4:30 PM 55.4 °F 48.2 °F 77% 29.80 in 6.2 mi South 15.0 mph 26.5 mph N/A   Mostly Cloudy
5:00 PM 55.4 °F 48.2 °F 77% 29.80 in 6.2 mi South 18.4 mph - N/A   Mostly Cloudy
5:30 PM 55.4 °F 48.2 °F 77% 29.77 in 6.2 mi South 18.4 mph - N/A   Mostly Cloudy
6:00 PM 55.4 °F 48.2 °F 77% 29.77 in 6.2 mi South 18.4 mph - N/A   Mostly Cloudy
6:30 PM 55.4 °F 48.2 °F 77% 29.77 in 5.0 mi South 23.0 mph 35.7 mph N/A Rain Light Rain
7:30 PM 53.6 °F 50.0 °F 88% 29.77 in 4.3 mi South 19.6 mph - N/A Rain Rain
8:30 PM 51.8 °F 50.0 °F 94% 29.77 in 2.5 mi South 16.1 mph - N/A Rain Rain
9:00 PM 51.8 °F 50.0 °F 94% 29.80 in 2.5 mi West 8.1 mph - N/A Rain Rain
9:30 PM 50.0 °F 50.0 °F 100% 29.83 in 2.5 mi WNW 10.4 mph - N/A Rain Rain
10:00 PM 48.2 °F 48.2 °F 100% 29.86 in 3.1 mi West 13.8 mph - N/A Rain Rain
10:30 PM 48.2 °F 48.2 °F 100% 29.86 in 6.2 mi Variable 2.3 mph - N/A Rain Light Rain
11:00 PM 48.2 °F 48.2 °F 100% 29.89 in 6.2 mi SW 3.5 mph - N/A Rain Light Rain